Year,Month,Day,Hour,Minute,Value (Times are PST for temperature in C)
2016,04,20,00,00,16.50
2016,04,20,00,01,16.50
2016,04,20,00,02,16.50
2016,04,20,00,03,16.50
2016,04,20,00,04,16.50
2016,04,20,00,05,16.40
2016,04,20,00,06,16.40
2016,04,20,00,07,16.30
2016,04,20,00,08,16.30
2016,04,20,00,09,16.30
2016,04,20,00,10,16.30
2016,04,20,00,11,16.30
2016,04,20,00,12,16.30
2016,04,20,00,13,16.30
2016,04,20,00,14,16.30
2016,04,20,00,15,16.30
2016,04,20,00,16,16.40
2016,04,20,00,17,16.40
2016,04,20,00,18,16.40
2016,04,20,00,19,16.40
2016,04,20,00,20,16.40
2016,04,20,00,21,16.40
2016,04,20,00,22,16.30
2016,04,20,00,23,16.30
2016,04,20,00,24,16.30
2016,04,20,00,25,16.20
2016,04,20,00,26,16.20
2016,04,20,00,27,16.10
2016,04,20,00,28,16.10
2016,04,20,00,29,16.00
2016,04,20,00,30,16.00
2016,04,20,00,31,15.90
2016,04,20,00,32,15.90
2016,04,20,00,33,15.90
2016,04,20,00,34,15.80
2016,04,20,00,35,15.70
2016,04,20,00,36,15.70
2016,04,20,00,37,15.70
2016,04,20,00,38,15.70
2016,04,20,00,39,15.70
2016,04,20,00,40,15.60
2016,04,20,00,41,15.60
2016,04,20,00,42,15.60
2016,04,20,00,43,15.50
2016,04,20,00,44,15.50
2016,04,20,00,45,15.40
2016,04,20,00,46,15.40
2016,04,20,00,47,15.30
2016,04,20,00,48,15.30
2016,04,20,00,49,15.30
2016,04,20,00,50,15.30
2016,04,20,00,51,15.30
2016,04,20,00,52,15.30
2016,04,20,00,53,15.30
2016,04,20,00,54,15.30
2016,04,20,00,55,15.30
2016,04,20,00,56,15.30
2016,04,20,00,57,15.30
2016,04,20,00,58,15.20
2016,04,20,00,59,15.20
2016,04,20,01,00,15.20
2016,04,20,01,01,15.20
2016,04,20,01,02,15.20
2016,04,20,01,03,15.30
2016,04,20,01,04,15.20
2016,04,20,01,05,15.20
2016,04,20,01,06,15.30
2016,04,20,01,07,15.30
2016,04,20,01,08,15.30
2016,04,20,01,09,15.30
2016,04,20,01,10,15.30
2016,04,20,01,11,15.30
2016,04,20,01,12,15.30
2016,04,20,01,13,15.20
2016,04,20,01,14,15.10
2016,04,20,01,15,15.10
2016,04,20,01,16,15.10
2016,04,20,01,17,15.20
2016,04,20,01,18,15.20
2016,04,20,01,19,15.10
2016,04,20,01,20,15.10
2016,04,20,01,21,15.00
2016,04,20,01,22,15.00
2016,04,20,01,23,15.00
2016,04,20,01,24,15.10
2016,04,20,01,25,15.10
2016,04,20,01,26,15.10
2016,04,20,01,27,15.10
2016,04,20,01,28,15.10
2016,04,20,01,29,15.20
2016,04,20,01,30,15.30
2016,04,20,01,31,15.30
2016,04,20,01,32,15.30
2016,04,20,01,33,15.30
2016,04,20,01,34,15.20
2016,04,20,01,35,15.20
2016,04,20,01,36,15.20
2016,04,20,01,37,15.10
2016,04,20,01,38,15.10
2016,04,20,01,39,15.10
2016,04,20,01,40,15.10
2016,04,20,01,41,15.10
2016,04,20,01,42,15.10
2016,04,20,01,43,15.00
2016,04,20,01,44,15.00
2016,04,20,01,45,15.00
2016,04,20,01,46,14.90
2016,04,20,01,47,14.90
2016,04,20,01,48,14.90
2016,04,20,01,49,14.90
2016,04,20,01,50,14.90
2016,04,20,01,51,14.90
2016,04,20,01,52,14.90
2016,04,20,01,53,14.90
2016,04,20,01,54,14.90
2016,04,20,01,55,14.80
2016,04,20,01,56,14.80
2016,04,20,01,57,14.80
2016,04,20,01,58,14.80
2016,04,20,01,59,14.90
2016,04,20,02,00,14.90
2016,04,20,02,01,14.90
2016,04,20,02,02,14.90
2016,04,20,02,03,15.00
2016,04,20,02,04,15.00
2016,04,20,02,05,15.00
2016,04,20,02,06,15.10
2016,04,20,02,07,15.10
2016,04,20,02,08,15.10
2016,04,20,02,09,15.10
2016,04,20,02,10,15.10
2016,04,20,02,11,15.00
2016,04,20,02,12,15.00
2016,04,20,02,13,14.90
2016,04,20,02,14,14.80
2016,04,20,02,15,14.80
2016,04,20,02,16,14.70
2016,04,20,02,17,14.70
2016,04,20,02,18,14.70
2016,04,20,02,19,14.70
2016,04,20,02,20,14.70
2016,04,20,02,21,14.70
2016,04,20,02,22,14.60
2016,04,20,02,23,14.60
2016,04,20,02,24,14.50
2016,04,20,02,25,14.50
2016,04,20,02,26,14.40
2016,04,20,02,27,14.40
2016,04,20,02,28,14.40
2016,04,20,02,29,14.40
2016,04,20,02,30,14.40
2016,04,20,02,31,14.40
2016,04,20,02,32,14.40
2016,04,20,02,33,14.40
2016,04,20,02,34,14.40
2016,04,20,02,35,14.40
2016,04,20,02,36,14.40
2016,04,20,02,37,14.40
2016,04,20,02,38,14.30
2016,04,20,02,39,14.30
2016,04,20,02,40,14.30
2016,04,20,02,41,14.20
2016,04,20,02,42,14.20
2016,04,20,02,43,14.20
2016,04,20,02,44,14.10
2016,04,20,02,45,14.10
2016,04,20,02,46,14.00
2016,04,20,02,47,13.90
2016,04,20,02,48,13.90
2016,04,20,02,49,13.80
2016,04,20,02,50,13.80
2016,04,20,02,51,13.70
2016,04,20,02,52,13.70
2016,04,20,02,53,13.60
2016,04,20,02,54,13.60
2016,04,20,02,55,13.50
2016,04,20,02,56,13.40
2016,04,20,02,57,13.40
2016,04,20,02,58,13.30
2016,04,20,02,59,13.30
2016,04,20,03,00,13.30
2016,04,20,03,01,13.20
2016,04,20,03,02,13.20
2016,04,20,03,03,13.10
2016,04,20,03,04,13.10
2016,04,20,03,05,13.10
2016,04,20,03,06,13.10
2016,04,20,03,07,13.10
2016,04,20,03,08,13.10
2016,04,20,03,09,13.10
2016,04,20,03,10,13.10
2016,04,20,03,11,13.20
2016,04,20,03,12,13.20
2016,04,20,03,13,13.20
2016,04,20,03,14,13.20
2016,04,20,03,15,13.20
2016,04,20,03,16,13.20
2016,04,20,03,17,13.20
2016,04,20,03,18,13.20
2016,04,20,03,19,13.30
2016,04,20,03,20,13.30
2016,04,20,03,21,13.30
2016,04,20,03,22,13.30
2016,04,20,03,23,13.30
2016,04,20,03,24,13.20
2016,04,20,03,25,13.20
2016,04,20,03,26,13.20
2016,04,20,03,27,13.20
2016,04,20,03,28,13.20
2016,04,20,03,29,13.20
2016,04,20,03,30,13.20
2016,04,20,03,31,13.10
2016,04,20,03,32,13.10
2016,04,20,03,33,13.10
2016,04,20,03,34,13.10
2016,04,20,03,35,13.00
2016,04,20,03,36,13.00
2016,04,20,03,37,12.90
2016,04,20,03,38,12.90
2016,04,20,03,39,12.80
2016,04,20,03,40,12.80
2016,04,20,03,41,12.80
2016,04,20,03,42,12.80
2016,04,20,03,43,12.70
2016,04,20,03,44,12.70
2016,04,20,03,45,12.60
2016,04,20,03,46,12.60
2016,04,20,03,47,12.50
2016,04,20,03,48,12.50
2016,04,20,03,49,12.40
2016,04,20,03,50,12.40
2016,04,20,03,51,12.40
2016,04,20,03,52,12.30
2016,04,20,03,53,12.30
2016,04,20,03,54,12.20
2016,04,20,03,55,12.20
2016,04,20,03,56,12.20
2016,04,20,03,57,12.20
2016,04,20,03,58,12.20
2016,04,20,03,59,12.20
2016,04,20,04,00,12.20
2016,04,20,04,01,12.20
2016,04,20,04,02,12.20
2016,04,20,04,03,12.20
2016,04,20,04,04,12.20
2016,04,20,04,05,12.20
2016,04,20,04,06,12.10
2016,04,20,04,07,12.20
2016,04,20,04,08,12.20
2016,04,20,04,09,12.20
2016,04,20,04,10,12.20
2016,04,20,04,11,12.20
2016,04,20,04,12,12.20
2016,04,20,04,13,12.20
2016,04,20,04,14,12.20
2016,04,20,04,15,12.20
2016,04,20,04,16,12.20
2016,04,20,04,17,12.30
2016,04,20,04,18,12.30
2016,04,20,04,19,12.20
2016,04,20,04,20,12.20
2016,04,20,04,21,12.20
2016,04,20,04,22,12.30
2016,04,20,04,23,12.40
2016,04,20,04,24,12.50
2016,04,20,04,25,12.60
2016,04,20,04,26,12.70
2016,04,20,04,27,12.80
2016,04,20,04,28,12.80
2016,04,20,04,29,12.90
2016,04,20,04,30,13.00
2016,04,20,04,31,13.00
2016,04,20,04,32,13.10
2016,04,20,04,33,13.30
2016,04,20,04,34,13.30
2016,04,20,04,35,13.40
2016,04,20,04,36,13.40
2016,04,20,04,37,13.30
2016,04,20,04,38,13.40
2016,04,20,04,39,13.50
2016,04,20,04,40,13.60
2016,04,20,04,41,13.70
2016,04,20,04,42,13.70
2016,04,20,04,43,13.60
2016,04,20,04,44,13.50
2016,04,20,04,45,13.50
2016,04,20,04,46,13.40
2016,04,20,04,47,13.40
2016,04,20,04,48,13.40
2016,04,20,04,49,13.50
2016,04,20,04,50,13.50
2016,04,20,04,51,13.50
2016,04,20,04,52,13.40
2016,04,20,04,53,13.30
2016,04,20,04,54,13.30
2016,04,20,04,55,13.20
2016,04,20,04,56,13.20
2016,04,20,04,57,13.20
2016,04,20,04,58,13.10
2016,04,20,04,59,13.10
2016,04,20,05,00,13.10
2016,04,20,05,01,13.10
2016,04,20,05,02,13.10
2016,04,20,05,03,13.20
2016,04,20,05,04,13.20
2016,04,20,05,05,13.20
2016,04,20,05,06,13.20
2016,04,20,05,07,13.20
2016,04,20,05,08,13.20
2016,04,20,05,09,13.20
2016,04,20,05,10,13.30
2016,04,20,05,11,13.30
2016,04,20,05,12,13.30
2016,04,20,05,13,13.40
2016,04,20,05,14,13.40
2016,04,20,05,15,13.50
2016,04,20,05,16,13.50
2016,04,20,05,17,13.60
2016,04,20,05,18,13.50
2016,04,20,05,19,13.50
2016,04,20,05,20,13.40
2016,04,20,05,21,13.40
2016,04,20,05,22,13.30
2016,04,20,05,23,13.30
2016,04,20,05,24,13.30
2016,04,20,05,25,13.30
2016,04,20,05,26,13.30
2016,04,20,05,27,13.30
2016,04,20,05,28,13.40
2016,04,20,05,29,13.40
2016,04,20,05,30,13.40
2016,04,20,05,31,13.40
2016,04,20,05,32,13.40
2016,04,20,05,33,13.30
2016,04,20,05,34,13.30
2016,04,20,05,35,13.30
2016,04,20,05,36,13.40
2016,04,20,05,37,13.40
2016,04,20,05,38,13.40
2016,04,20,05,39,13.40
2016,04,20,05,40,13.40
2016,04,20,05,41,13.40
2016,04,20,05,42,13.40
2016,04,20,05,43,13.40
2016,04,20,05,44,13.40
2016,04,20,05,45,13.40
2016,04,20,05,46,13.40
2016,04,20,05,47,13.40
2016,04,20,05,48,13.40
2016,04,20,05,49,13.50
2016,04,20,05,50,13.50
2016,04,20,05,51,13.50
2016,04,20,05,52,13.50
2016,04,20,05,53,13.40
2016,04,20,05,54,13.40
2016,04,20,05,55,13.50
2016,04,20,05,56,13.50
2016,04,20,05,57,13.50
2016,04,20,05,58,13.50
2016,04,20,05,59,13.40
2016,04,20,06,00,13.40
2016,04,20,06,01,13.40
2016,04,20,06,02,13.30
2016,04,20,06,03,13.20
2016,04,20,06,04,13.20
2016,04,20,06,05,13.20
2016,04,20,06,06,13.10
2016,04,20,06,07,13.00
2016,04,20,06,08,13.00
2016,04,20,06,09,12.90
2016,04,20,06,10,12.80
2016,04,20,06,11,12.80
2016,04,20,06,12,12.70
2016,04,20,06,13,12.60
2016,04,20,06,14,12.60
2016,04,20,06,15,12.60
2016,04,20,06,16,12.50
2016,04,20,06,17,12.40
2016,04,20,06,18,12.40
2016,04,20,06,19,12.30
2016,04,20,06,20,12.30
2016,04,20,06,21,12.30
2016,04,20,06,22,12.20
2016,04,20,06,23,12.20
2016,04,20,06,24,12.10
2016,04,20,06,25,12.10
2016,04,20,06,26,12.10
2016,04,20,06,27,12.00
2016,04,20,06,28,12.00
2016,04,20,06,29,11.90
2016,04,20,06,30,11.90
2016,04,20,06,31,11.90
2016,04,20,06,32,11.90
2016,04,20,06,33,11.90
2016,04,20,06,34,11.80
2016,04,20,06,35,11.80
2016,04,20,06,36,11.80
2016,04,20,06,37,11.90
2016,04,20,06,38,11.80
2016,04,20,06,39,11.80
2016,04,20,06,40,11.80
2016,04,20,06,41,11.80
2016,04,20,06,42,11.80
2016,04,20,06,43,11.80
2016,04,20,06,44,11.80
2016,04,20,06,45,11.80
2016,04,20,06,46,11.80
2016,04,20,06,47,11.80
2016,04,20,06,48,11.80
2016,04,20,06,49,11.90
2016,04,20,06,50,11.90
2016,04,20,06,51,11.90
2016,04,20,06,52,12.00
2016,04,20,06,53,12.10
2016,04,20,06,54,12.10
2016,04,20,06,55,12.20
2016,04,20,06,56,12.20
2016,04,20,06,57,12.30
2016,04,20,06,58,12.30
2016,04,20,06,59,12.40
2016,04,20,07,00,12.40
2016,04,20,07,01,12.50
2016,04,20,07,02,12.60
2016,04,20,07,03,12.70
2016,04,20,07,04,12.70
2016,04,20,07,05,12.70
2016,04,20,07,06,12.70
2016,04,20,07,07,12.70
2016,04,20,07,08,12.70
2016,04,20,07,09,12.70
2016,04,20,07,10,12.60
2016,04,20,07,11,12.60
2016,04,20,07,12,12.60
2016,04,20,07,13,12.60
2016,04,20,07,14,12.60
2016,04,20,07,15,12.60
2016,04,20,07,16,12.50
2016,04,20,07,17,12.50
2016,04,20,07,18,12.50
2016,04,20,07,19,12.50
2016,04,20,07,20,12.60
2016,04,20,07,21,12.70
2016,04,20,07,22,12.70
2016,04,20,07,23,12.80
2016,04,20,07,24,12.80
2016,04,20,07,25,12.80
2016,04,20,07,26,12.90
2016,04,20,07,27,12.90
2016,04,20,07,28,12.90
2016,04,20,07,29,12.80
2016,04,20,07,30,12.80
2016,04,20,07,31,12.90
2016,04,20,07,32,12.90
2016,04,20,07,33,12.90
2016,04,20,07,34,12.90
2016,04,20,07,35,12.90
2016,04,20,07,36,12.90
2016,04,20,07,37,13.00
2016,04,20,07,38,13.00
2016,04,20,07,39,13.00
2016,04,20,07,40,13.00
2016,04,20,07,41,13.00
2016,04,20,07,42,13.00
2016,04,20,07,43,13.10
2016,04,20,07,44,13.10
2016,04,20,07,45,13.10
2016,04,20,07,46,13.10
2016,04,20,07,47,13.20
2016,04,20,07,48,13.20
2016,04,20,07,49,13.20
2016,04,20,07,50,13.20
2016,04,20,07,51,13.20
2016,04,20,07,52,13.30
2016,04,20,07,53,13.30
2016,04,20,07,54,13.20
2016,04,20,07,55,13.20
2016,04,20,07,56,13.20
2016,04,20,07,57,13.20
2016,04,20,07,58,13.20
2016,04,20,07,59,13.10
2016,04,20,08,00,13.10
2016,04,20,08,01,13.20
2016,04,20,08,02,13.20
2016,04,20,08,03,13.20
2016,04,20,08,04,13.20
2016,04,20,08,05,13.20
2016,04,20,08,06,13.20
2016,04,20,08,07,13.20
2016,04,20,08,08,13.20
2016,04,20,08,09,13.20
2016,04,20,08,10,13.20
2016,04,20,08,11,13.20
2016,04,20,08,12,13.20
2016,04,20,08,13,13.30
2016,04,20,08,14,13.30
2016,04,20,08,15,13.40
2016,04,20,08,16,13.40
2016,04,20,08,17,13.40
2016,04,20,08,18,13.40
2016,04,20,08,19,13.50
2016,04,20,08,20,13.50
2016,04,20,08,21,13.60
2016,04,20,08,22,13.60
2016,04,20,08,23,13.70
2016,04,20,08,24,13.70
2016,04,20,08,25,13.80
2016,04,20,08,26,13.80
2016,04,20,08,27,13.90
2016,04,20,08,28,13.90
2016,04,20,08,29,14.00
2016,04,20,08,30,14.00
2016,04,20,08,31,14.10
2016,04,20,08,32,14.10
2016,04,20,08,33,14.20
2016,04,20,08,34,14.30
2016,04,20,08,35,14.30
2016,04,20,08,36,14.40
2016,04,20,08,37,14.40
2016,04,20,08,38,14.50
2016,04,20,08,39,14.50
2016,04,20,08,40,14.60
2016,04,20,08,41,14.60
2016,04,20,08,42,14.60
2016,04,20,08,43,14.70
2016,04,20,08,44,14.80
2016,04,20,08,45,14.80
2016,04,20,08,46,14.80
2016,04,20,08,47,14.90
2016,04,20,08,48,14.90
2016,04,20,08,49,14.90
2016,04,20,08,50,15.00
2016,04,20,08,51,15.00
2016,04,20,08,52,15.00
2016,04,20,08,53,15.00
2016,04,20,08,54,15.10
2016,04,20,08,55,15.20
2016,04,20,08,56,15.20
2016,04,20,08,57,15.20
2016,04,20,08,58,15.20
2016,04,20,08,59,15.30
2016,04,20,09,00,15.30
2016,04,20,09,01,15.30
2016,04,20,09,02,15.30
2016,04,20,09,03,15.30
2016,04,20,09,04,15.40
2016,04,20,09,05,15.40
2016,04,20,09,06,15.50
2016,04,20,09,07,15.50
2016,04,20,09,08,15.60
2016,04,20,09,09,15.60
2016,04,20,09,10,15.70
2016,04,20,09,11,15.70
2016,04,20,09,12,15.80
2016,04,20,09,13,15.80
2016,04,20,09,14,15.80
2016,04,20,09,15,15.90
2016,04,20,09,16,15.90
2016,04,20,09,17,16.00
2016,04,20,09,18,16.00
2016,04,20,09,19,16.10
2016,04,20,09,20,16.10
2016,04,20,09,21,16.10
2016,04,20,09,22,16.20
2016,04,20,09,23,16.20
2016,04,20,09,24,16.30
2016,04,20,09,25,16.30
2016,04,20,09,26,16.30
2016,04,20,09,27,16.40
2016,04,20,09,28,16.40
2016,04,20,09,29,16.50
2016,04,20,09,30,16.50
2016,04,20,09,31,16.60
2016,04,20,09,32,16.60
2016,04,20,09,33,16.70
2016,04,20,09,34,16.70
2016,04,20,09,35,16.70
2016,04,20,09,36,16.70
2016,04,20,09,37,16.70
2016,04,20,09,38,16.70
2016,04,20,09,39,16.70
2016,04,20,09,40,16.70
2016,04,20,09,41,16.70
2016,04,20,09,42,16.70
2016,04,20,09,43,16.70
2016,04,20,09,44,16.70
2016,04,20,09,45,16.80
2016,04,20,09,46,16.80
2016,04,20,09,47,16.80
2016,04,20,09,48,16.80
2016,04,20,09,49,16.80
2016,04,20,09,50,16.80
2016,04,20,09,51,16.80
2016,04,20,09,52,16.80
2016,04,20,09,53,16.90
2016,04,20,09,54,16.90
2016,04,20,09,55,16.90
2016,04,20,09,56,17.00
2016,04,20,09,57,17.10
2016,04,20,09,58,17.10
2016,04,20,09,59,17.20
2016,04,20,10,00,17.20
2016,04,20,10,01,17.20
2016,04,20,10,02,17.20
2016,04,20,10,03,17.30
2016,04,20,10,04,17.30
2016,04,20,10,05,17.40
2016,04,20,10,06,17.40
2016,04,20,10,07,17.50
2016,04,20,10,08,17.50
2016,04,20,10,09,17.60
2016,04,20,10,10,17.60
2016,04,20,10,11,17.60
2016,04,20,10,12,17.70
2016,04,20,10,13,17.70
2016,04,20,10,14,17.80
2016,04,20,10,15,17.80
2016,04,20,10,16,17.90
2016,04,20,10,17,17.90
2016,04,20,10,18,17.90
2016,04,20,10,19,17.90
2016,04,20,10,20,17.90
2016,04,20,10,21,18.00
2016,04,20,10,22,18.10
2016,04,20,10,23,18.10
2016,04,20,10,24,18.10
2016,04,20,10,25,18.20
2016,04,20,10,26,18.20
2016,04,20,10,27,18.20
2016,04,20,10,28,18.30
2016,04,20,10,29,18.30
2016,04,20,10,30,18.30
2016,04,20,10,31,18.30
2016,04,20,10,32,18.40
2016,04,20,10,33,18.40
2016,04,20,10,34,18.50
2016,04,20,10,35,18.50
2016,04,20,10,36,18.60
2016,04,20,10,37,18.70
2016,04,20,10,38,18.80
2016,04,20,10,39,18.80
2016,04,20,10,40,18.90
2016,04,20,10,41,18.90
2016,04,20,10,42,19.00
2016,04,20,10,43,19.00
2016,04,20,10,44,19.10
2016,04,20,10,45,19.10
2016,04,20,10,46,19.20
2016,04,20,10,47,19.20
2016,04,20,10,48,19.20
2016,04,20,10,49,19.30
2016,04,20,10,50,19.30
2016,04,20,10,51,19.30
2016,04,20,10,52,19.30
2016,04,20,10,53,19.30
2016,04,20,10,54,19.30
2016,04,20,10,55,19.40
2016,04,20,10,56,19.40
2016,04,20,10,57,19.50
2016,04,20,10,58,19.50
2016,04,20,10,59,19.60
2016,04,20,11,00,19.60
2016,04,20,11,01,19.60
2016,04,20,11,02,19.70
2016,04,20,11,03,19.70
2016,04,20,11,04,19.70
2016,04,20,11,05,19.70
2016,04,20,11,06,19.70
2016,04,20,11,07,19.80
2016,04,20,11,08,19.80
2016,04,20,11,09,19.80
2016,04,20,11,10,19.90
2016,04,20,11,11,19.90
2016,04,20,11,12,19.90
2016,04,20,11,13,20.00
2016,04,20,11,14,20.00
2016,04,20,11,15,20.00
2016,04,20,11,16,20.10
2016,04,20,11,17,20.10
2016,04,20,11,18,20.10
2016,04,20,11,19,20.10
2016,04,20,11,20,20.20
2016,04,20,11,21,20.20
2016,04,20,11,22,20.20
2016,04,20,11,23,20.20
2016,04,20,11,24,20.20
2016,04,20,11,25,20.20
2016,04,20,11,26,20.20
2016,04,20,11,27,20.20
2016,04,20,11,28,20.30
2016,04,20,11,29,20.30
2016,04,20,11,30,20.40
2016,04,20,11,31,20.40
2016,04,20,11,32,20.50
2016,04,20,11,33,20.50
2016,04,20,11,34,20.50
2016,04,20,11,35,20.60
2016,04,20,11,36,20.60
2016,04,20,11,37,20.70
2016,04,20,11,38,20.70
2016,04,20,11,39,20.70
2016,04,20,11,40,20.70
2016,04,20,11,41,20.80
2016,04,20,11,42,20.80
2016,04,20,11,43,20.80
2016,04,20,11,44,20.80
2016,04,20,11,45,20.80
2016,04,20,11,46,20.80
2016,04,20,11,47,20.80
2016,04,20,11,48,20.80
2016,04,20,11,49,20.80
2016,04,20,11,50,20.90
2016,04,20,11,51,20.90
2016,04,20,11,52,21.00
2016,04,20,11,53,21.00
2016,04,20,11,54,21.10
2016,04,20,11,55,21.20
2016,04,20,11,56,21.30
2016,04,20,11,57,21.30
2016,04,20,11,58,21.40
2016,04,20,11,59,21.50
2016,04,20,12,00,21.50
2016,04,20,12,01,21.50
2016,04,20,12,02,21.60
2016,04,20,12,03,21.60
2016,04,20,12,04,21.70
2016,04,20,12,05,21.70
2016,04,20,12,06,21.80
2016,04,20,12,07,21.90
2016,04,20,12,08,21.90
2016,04,20,12,09,22.00
2016,04,20,12,10,22.10
2016,04,20,12,11,22.10
2016,04,20,12,12,22.10
2016,04,20,12,13,22.10
2016,04,20,12,14,22.10
2016,04,20,12,15,22.20
2016,04,20,12,16,22.20
2016,04,20,12,17,22.20
2016,04,20,12,18,22.20
2016,04,20,12,19,22.20
2016,04,20,12,20,22.20
2016,04,20,12,21,22.30
2016,04,20,12,22,22.30
2016,04,20,12,23,22.40
2016,04,20,12,24,22.60
2016,04,20,12,25,22.70
2016,04,20,12,26,22.80
2016,04,20,12,27,22.90
2016,04,20,12,28,22.90
2016,04,20,12,29,22.90
2016,04,20,12,30,22.90
2016,04,20,12,31,22.90
2016,04,20,12,32,22.90
2016,04,20,12,33,22.80
2016,04,20,12,34,22.70
2016,04,20,12,35,22.70
2016,04,20,12,36,22.60
2016,04,20,12,37,22.50
2016,04,20,12,38,22.50
2016,04,20,12,39,22.60
2016,04,20,12,40,22.60
2016,04,20,12,41,22.70
2016,04,20,12,42,22.80
2016,04,20,12,43,22.90
2016,04,20,12,44,23.00
2016,04,20,12,45,23.00
2016,04,20,12,46,23.10
2016,04,20,12,47,23.10
2016,04,20,12,48,23.10
2016,04,20,12,49,23.10
2016,04,20,12,50,23.20
2016,04,20,12,51,23.30
2016,04,20,12,52,23.40
2016,04,20,12,53,23.50
2016,04,20,12,54,23.50
2016,04,20,12,55,23.60
2016,04,20,12,56,23.60
2016,04,20,12,57,23.70
2016,04,20,12,58,23.70
2016,04,20,12,59,23.80
2016,04,20,13,00,23.80
2016,04,20,13,01,23.80
2016,04,20,13,02,23.90
2016,04,20,13,03,23.90
2016,04,20,13,04,23.90
2016,04,20,13,05,23.80
2016,04,20,13,06,23.80
2016,04,20,13,07,23.80
2016,04,20,13,08,23.70
2016,04,20,13,09,23.80
2016,04,20,13,10,23.80
2016,04,20,13,11,23.90
2016,04,20,13,12,24.00
2016,04,20,13,13,24.10
2016,04,20,13,14,24.10
2016,04,20,13,15,24.10
2016,04,20,13,16,24.10
2016,04,20,13,17,24.00
2016,04,20,13,18,24.00
2016,04,20,13,19,24.00
2016,04,20,13,20,23.90
2016,04,20,13,21,23.90
2016,04,20,13,22,23.80
2016,04,20,13,23,23.70
2016,04,20,13,24,23.70
2016,04,20,13,25,23.70
2016,04,20,13,26,23.60
2016,04,20,13,27,23.60
2016,04,20,13,28,23.60
2016,04,20,13,29,23.60
2016,04,20,13,30,23.60
2016,04,20,13,31,23.60
2016,04,20,13,32,23.60
2016,04,20,13,33,23.70
2016,04,20,13,34,23.80
2016,04,20,13,35,23.90
2016,04,20,13,36,24.00
2016,04,20,13,37,24.00
2016,04,20,13,38,24.10
2016,04,20,13,39,24.10
2016,04,20,13,40,24.20
2016,04,20,13,41,24.20
2016,04,20,13,42,24.30
2016,04,20,13,43,24.30
2016,04,20,13,44,24.30
2016,04,20,13,45,24.30
2016,04,20,13,46,24.30
2016,04,20,13,47,24.20
2016,04,20,13,48,24.20
2016,04,20,13,49,24.20
2016,04,20,13,50,24.20
2016,04,20,13,51,24.20
2016,04,20,13,52,24.20
2016,04,20,13,53,24.20
2016,04,20,13,54,24.20
2016,04,20,13,55,24.30
2016,04,20,13,56,24.40
2016,04,20,13,57,24.40
2016,04,20,13,58,24.50
2016,04,20,13,59,24.60
2016,04,20,14,00,24.70
2016,04,20,14,01,24.70
2016,04,20,14,02,24.80
2016,04,20,14,03,24.90
2016,04,20,14,04,24.90
2016,04,20,14,05,25.00
2016,04,20,14,06,25.00
2016,04,20,14,07,25.10
2016,04,20,14,08,25.10
2016,04,20,14,09,25.10
2016,04,20,14,10,25.10
2016,04,20,14,11,25.10
2016,04,20,14,12,25.10
2016,04,20,14,13,25.00
2016,04,20,14,14,25.00
2016,04,20,14,15,24.90
2016,04,20,14,16,24.90
2016,04,20,14,17,24.80
2016,04,20,14,18,24.80
2016,04,20,14,19,24.80
2016,04,20,14,20,24.80
2016,04,20,14,21,24.80
2016,04,20,14,22,24.80
2016,04,20,14,23,24.80
2016,04,20,14,24,24.80
2016,04,20,14,25,24.80
2016,04,20,14,26,24.80
2016,04,20,14,27,24.70
2016,04,20,14,28,24.70
2016,04,20,14,29,24.70
2016,04,20,14,30,24.70
2016,04,20,14,31,24.70
2016,04,20,14,32,24.70
2016,04,20,14,33,24.60
2016,04,20,14,34,24.60
2016,04,20,14,35,24.70
2016,04,20,14,36,24.70
2016,04,20,14,37,24.80
2016,04,20,14,38,24.80
2016,04,20,14,39,24.80
2016,04,20,14,40,24.80
2016,04,20,14,41,24.70
2016,04,20,14,42,24.70
2016,04,20,14,43,24.70
2016,04,20,14,44,24.80
2016,04,20,14,45,24.80
2016,04,20,14,46,24.80
2016,04,20,14,47,24.70
2016,04,20,14,48,24.70
2016,04,20,14,49,24.70
2016,04,20,14,50,24.70
2016,04,20,14,51,24.80
2016,04,20,14,52,24.80
2016,04,20,14,53,24.90
2016,04,20,14,54,24.90
2016,04,20,14,55,25.00
2016,04,20,14,56,25.00
2016,04,20,14,57,25.10
2016,04,20,14,58,25.10
2016,04,20,14,59,25.20
2016,04,20,15,00,25.20
2016,04,20,15,01,25.20
2016,04,20,15,02,25.20
2016,04,20,15,03,25.20
2016,04,20,15,04,25.20
2016,04,20,15,05,25.20
2016,04,20,15,06,25.30
2016,04,20,15,07,25.30
2016,04,20,15,08,25.30
2016,04,20,15,09,25.40
2016,04,20,15,10,25.40
2016,04,20,15,11,25.40
2016,04,20,15,12,25.50
2016,04,20,15,13,25.50
2016,04,20,15,14,25.50
2016,04,20,15,15,25.60
2016,04,20,15,16,25.60
2016,04,20,15,17,25.60
2016,04,20,15,18,25.60
2016,04,20,15,19,25.70
2016,04,20,15,20,25.70
2016,04,20,15,21,25.70
2016,04,20,15,22,25.70
2016,04,20,15,23,25.70
2016,04,20,15,24,25.70
2016,04,20,15,25,25.70
2016,04,20,15,26,25.70
2016,04,20,15,27,25.70
2016,04,20,15,28,25.70
2016,04,20,15,29,25.70
2016,04,20,15,30,25.80
2016,04,20,15,31,25.80
2016,04,20,15,32,25.80
2016,04,20,15,33,25.80
2016,04,20,15,34,25.80
2016,04,20,15,35,25.80
2016,04,20,15,36,25.80
2016,04,20,15,37,25.80
2016,04,20,15,38,25.80
2016,04,20,15,39,25.80
2016,04,20,15,40,25.80
2016,04,20,15,41,25.90
2016,04,20,15,42,25.90
2016,04,20,15,43,25.90
2016,04,20,15,44,25.90
2016,04,20,15,45,26.00
2016,04,20,15,46,26.00
2016,04,20,15,47,26.10
2016,04,20,15,48,26.10
2016,04,20,15,49,26.20
2016,04,20,15,50,26.20
2016,04,20,15,51,26.20
2016,04,20,15,52,26.20
2016,04,20,15,53,26.10
2016,04,20,15,54,26.00
2016,04,20,15,55,26.00
2016,04,20,15,56,26.00
2016,04,20,15,57,26.00
2016,04,20,15,58,26.00
2016,04,20,15,59,26.00
2016,04,20,16,00,26.00
2016,04,20,16,01,25.90
2016,04,20,16,02,25.80
2016,04,20,16,03,25.70
2016,04,20,16,04,25.70
2016,04,20,16,05,25.70
2016,04,20,16,06,25.70
2016,04,20,16,07,25.80
2016,04,20,16,08,25.80
2016,04,20,16,09,25.90
2016,04,20,16,10,26.00
2016,04,20,16,11,26.00
2016,04,20,16,12,26.10
2016,04,20,16,13,26.10
2016,04,20,16,14,26.20
2016,04,20,16,15,26.30
2016,04,20,16,16,26.40
2016,04,20,16,17,26.50
2016,04,20,16,18,26.60
2016,04,20,16,19,26.60
2016,04,20,16,20,26.70
2016,04,20,16,21,26.70
2016,04,20,16,22,26.70
2016,04,20,16,23,26.70
2016,04,20,16,24,26.70
2016,04,20,16,25,26.70
2016,04,20,16,26,26.80
2016,04,20,16,27,26.80
2016,04,20,16,28,26.80
2016,04,20,16,29,26.80
2016,04,20,16,30,26.90
2016,04,20,16,31,26.90
2016,04,20,16,32,27.00
2016,04,20,16,33,27.10
2016,04,20,16,34,27.10
2016,04,20,16,35,27.20
2016,04,20,16,36,27.20
2016,04,20,16,37,27.30
2016,04,20,16,38,27.30
2016,04,20,16,39,27.40
2016,04,20,16,40,27.40
2016,04,20,16,41,27.40
2016,04,20,16,42,27.50
2016,04,20,16,43,27.50
2016,04,20,16,44,27.50
2016,04,20,16,45,27.50
2016,04,20,16,46,27.40
2016,04,20,16,47,27.40
2016,04,20,16,48,27.40
2016,04,20,16,49,27.30
2016,04,20,16,50,27.30
2016,04,20,16,51,27.30
2016,04,20,16,52,27.30
2016,04,20,16,53,27.30
2016,04,20,16,54,27.30
2016,04,20,16,55,27.30
2016,04,20,16,56,27.30
2016,04,20,16,57,27.40
2016,04,20,16,58,27.40
2016,04,20,16,59,27.40
2016,04,20,17,00,27.40
2016,04,20,17,01,27.30
2016,04,20,17,02,27.30
2016,04,20,17,03,27.30
2016,04,20,17,04,27.30
2016,04,20,17,05,27.30
2016,04,20,17,06,27.30
2016,04,20,17,07,27.30
2016,04,20,17,08,27.30
2016,04,20,17,09,27.30
2016,04,20,17,10,27.20
2016,04,20,17,11,27.10
2016,04,20,17,12,27.10
2016,04,20,17,13,27.00
2016,04,20,17,14,27.00
2016,04,20,17,15,27.00
2016,04,20,17,16,27.00
2016,04,20,17,17,27.00
2016,04,20,17,18,27.10
2016,04,20,17,19,27.10